Regional Weather Roundup
Issued by NWS Charleston, SC

Current Version | Previous Version | Graphics & Text | Print | Product List | Glossary On
Versions: 1 2 3 4 5 6 7 8 9 10 11 12 13 14 15 16 17 18 19 20 21 22 23 24 25 26 27 28 29 30 31 32 33 34 35 36 37 38 39 40 41 42 43 44 45 46 47 48 49 50
000 ASUS42 KCHS 200012 RWRCHS REGIONAL WEATHER ROUNDUP NATIONAL WEATHER SERVICE CHARLESTON SC 800 PM EDT THU OCT 19 2017 NOTE: "FAIR" INDICATES FEW OR NO CLOUDS BELOW 12,000 FEET WITH NO SIGNIFICANT WEATHER AND/OR OBSTRUCTIONS TO VISIBILITY. NOT ALL STATIONS ARE QUALITY CONTROLLED. USE DATA WITH CAUTION... ESPECIALLY DEWPOINT OBSERVATIONS. SCZ027-030-031-034>040-042>050-200100- ...SOUTHEAST SOUTH CAROLINA... CITY SKY/WX TMP DP RH WIND PRES REMARKS N CHARLESTON CLEAR 64 58 80 N6 30.20R 6HR MIN TEMP: 64; 6HR MAX TEMP: 81; WATERFRONT PRK N/A 73 64 73 NE5 30.04 JOHNS ISLAND FAIR 68 63 83 CALM 30.20R PINOPOLIS N/A N/A N/A N/A NE6 30.12S MONCKS CORNER FAIR 61 59 94 CALM 30.21R SUMMERVILLE FAIR 63 59 88 CALM 30.21S BEAUFORT MCAS CLEAR 70 61 73 NE5 30.20R 6HR MIN TEMP: 68; 6HR MAX TEMP: 82; BEAUFORT ARPT FAIR 68 63 83 CALM 30.20R HILTON HEAD IS CLEAR 70 63 78 NE5 N/A WALTERBORO CLEAR 61 57 88 CALM 30.22R ALLENDALE N/A 64 55 72 MISG N/A ...SOUTHERN MIDLANDS AND PEE DEE... CITY SKY/WX TMP DP RH WIND PRES REMARKS GEORGETOWN NOT AVBL KINGSTREE FAIR 59 55 88 CALM 30.21S ORANGEBURG CLEAR 61 54 77 CALM 30.21R 6HR MIN TEMP: 61; 6HR MAX TEMP: 78; BARNWELL N/A 64 55 72 CALM 30.21R AIKEN FAIR 59 50 72 CALM 30.26R MANNING HAZE 59 45 58 MISG 30.21S VSB<1/4 COLUMBIA CLEAR 62 55 77 CALM 30.22R 6HR MIN TEMP: 62; 6HR MAX TEMP: 79; SUMTER CLEAR 64 52 65 CALM 30.20R 6HR MIN TEMP: 63; 6HR MAX TEMP: 77; FLORENCE CLEAR 61 56 83 CALM 30.22R 6HR MIN TEMP: 61; 6HR MAX TEMP: 77; MYRTLE BEACH CLEAR 65 63 93 CALM 30.21R N MYRTLE BEACH CLEAR 64 63 96 CALM 30.19R 6HR MIN TEMP: 64; 6HR MAX TEMP: 78; $$ GAZ063-065-086>088-099>101-113>116-118-119-134>141-150-200100- ...SOUTHEAST GEORGIA... CITY SKY/WX TMP DP RH WIND PRES REMARKS SAVANNAH ARPT CLEAR 71 60 68 E5 30.20R 6HR MIN TEMP: 69; 6HR MAX TEMP: 82; HUNTER AAF CLEAR 69 61 75 E6 30.17R 6HR MIN TEMP: 69; 6HR MAX TEMP: 80; 6HR PCP: TRACE; FORT STEWART CLEAR 68 60 75 CALM 30.18R 6HR MIN TEMP: 67; 6HR MAX TEMP: 81; STATESBORO CLEAR 62 54 74 CALM 30.21R SYLVANIA CLEAR 64 60 85 CALM 30.21R CLAXTON FAIR 64 62 93 CALM 30.20R ...CSRA...CENTRAL AND FAR SOUTHEAST GEORGIA... CITY SKY/WX TMP DP RH WIND PRES REMARKS THOMSON CLEAR 57 52 84 CALM 30.28R AUGUSTA-BUSH CLEAR 59 54 83 CALM 30.21R 6HR MIN TEMP: 59; 6HR MAX TEMP: 80; AUGUSTA-DANIEL CLEAR 71 48 43 N5 30.22R SWAINSBORO FAIR 61 55 82 MISG 30.21S VIDALIA CLEAR 66 57 72 CALM 30.20R EASTMAN FAIR 65 49 54 CALM 30.23R HAZLEHURST FAIR 67 52 57 NE3 30.19R ALMA CLEAR 65 61 87 CALM 30.18R 6HR MIN TEMP: 65; 6HR MAX TEMP: 82; WAYCROSS CLEAR 70 60 70 CALM 30.18R JESUP FAIR 70 61 73 CALM 30.19 BAXLEY FAIR 64 59 82 CALM 30.19R BRUNSWICK CLEAR 68 59 73 CALM 30.19R SAINT SIMONS CLEAR 73 61 65 NE7 30.18R 6HR MIN TEMP: 72; 6HR MAX TEMP: 79; $$ SCZ027-028-034-036>038-045-046-048>050-GAZ119-141-200100- ...LAKE AND SUPPLEMENTAL COASTAL OBSERVATIONS... STATION/POSITION TIME TEMP WIND PRES WAVE SWELL AIR SEA DIR/SP/G HT/PER HT/PER/DIR (UTC) (F) (DEG/KT/KT) (MB) (FT/S) (FT/S/D) WINYAH BAY 2245 71 20/ 1 1022.0 LAKE MURRAY 2320 69 310/ 4/ 5 1022.4 ACE BASIN NERRS 2245 72 CALM 1022.0 FORT PULASKI 2348 73 73 80/ 8/ 10 1022.7R SAPELO ISLAND 2300 72 60/ 5 1022.0 $$ ANZ835-935-AMZ111-154-330-350-352-354-370-450-454-472-200100- ...C-MAN AND BUOY OBSERVATIONS... STATION/POSITION TIME TEMP WIND PRES WAVE SWELL AIR SEA DIR/SP/G HT/PER HT/PER/DIR (UTC) (F) (DEG/KT/KT) (MB) (FT/S) (FT/S/D) BUOY 41004 2350 76 80 30/ 14/ 17 1021.4R 5/ 8 3/ 90/ 8 BUOY 41008 2350 76 77 50/ 16/ 17 1021.2R 5/ 9 3/120/ 9 FOLLY BEACH CMAN 0000 72 30/ 7/ 8 1023.2R CAPERS NEARSHORE 2308 70 73 60/ 12/ 16 1021.6R FRIPP NEARSHORE 2308 75 60/ 10/ 14 N/A STATION/POSITION TIME TEMP WIND PRES WAVE SWELL AIR SEA DIR/SP/G HT/PER HT/PER/DIR (UTC) (F) (DEG/KT/KT) (MB) (FT/S) (FT/S/D) 5E ST. MARYS GA 2330 77 N/A 6/10 2/ 80/11 FRYING PAN BUOY 2350 75 76 40/ 12/ 14 1021.8R 5/ 9 3/110/ 9 BUOY 41025 2350 74 81 360/ 6/ 10 1022.0R 4/ 9 5/120/ 9 CAPE LOOKOUT NC 2300 72 40/ 5/ 5 1021.8R BUOY 41002 2350 78 80 40/ 17/ 19 1018.9R 6/ 8 3/110/ 9 BUOY 41010 NOT AVBL ST AUGUSTINE FL 0000 75 78 40/ 16/ 18 1020.5R $$

USA.gov is the U.S. government's official web portal to all federal, state and local government web resources and services.